[[{"header":{"parameterUnit":"m.s-1","parameterCategory":2,"la1":30.2992,"la2":30.254,"lo1":-89.0895,"lo2":-89.0443,"dy":0.0025,"dx":0.0025,"nx":19,"ny":19,"refTime":"2026-03-23T21:00:00:Z","depth":"0","parameterNumber":2,"parameterNumberName":"U-component_of_CURRENTS"},"data":[0,0,0,-0.3609,-0.3609,-0.3605,-0.3605,-0.3571,-0.357,0,0,0,0,0,0,0,0,0,0,0,-0.3607,-0.3607,-0.361,-0.3609,-0.3605,-0.3605,-0.3571,-0.357,0,0,0,0,0,0,0,0,0,0,0,-0.3607,-0.3607,-0.3607,-0.3609,-0.3605,-0.3605,-0.3571,-0.3582,0,0,0,0,0,0,0,0,0,0,-0.3589,-0.3564,-0.3607,-0.3607,-0.3609,-0.3605,-0.3605,-0.3582,-0.3581,-0.3563,0,-0.3559,0,-0.3563,-0.3567,-0.3567,0,0,0,-0.3611,-0.3565,-0.3591,-0.3607,-0.3609,-0.3605,-0.3608,-0.3582,-0.358,-0.3561,-0.3558,-0.3557,-0.3562,-0.3567,-0.3566,-0.3574,-0.3574,0,0,-0.3612,-0.358,-0.3592,-0.359,-0.3602,-0.3608,-0.3608,-0.3581,-0.3559,-0.3558,-0.3557,-0.3562,-0.3566,-0.3566,-0.3573,-0.3574,0,0,0,-0.3611,-0.358,-0.3607,-0.3591,-0.3592,-0.3608,-0.3607,-0.356,-0.3577,-0.3556,-0.3561,-0.3566,-0.3565,-0.3573,-0.3573,-0.3584,0,0,0,-0.3611,-0.3581,-0.3607,-0.3585,-0.3593,-0.3573,-0.3587,-0.3579,-0.3576,-0.3562,-0.3566,-0.3565,-0.3572,-0.3573,-0.3583,-0.3569,0,0,0,-0.3609,-0.3579,-0.3584,-0.3584,-0.3585,-0.3574,-0.3588,-0.3579,-0.3579,-0.3567,-0.3565,-0.3572,-0.3573,-0.3582,-0.3568,-0.3413,0,0,0,-0.3572,-0.3557,-0.3582,-0.3573,-0.3585,-0.362,-0.3588,-0.3599,-0.3594,-0.3566,-0.3572,-0.3573,-0.3581,-0.3567,-0.3415,-0.3158,-0.3128,0,0,-0.3539,-0.3551,-0.3555,-0.3579,-0.361,-0.3621,-0.3644,-0.3622,-0.3603,-0.3578,-0.3578,-0.3584,-0.3568,-0.3413,-0.3219,-0.3186,0,0,0,-0.3538,-0.3536,-0.3551,-0.3572,-0.3614,-0.364,-0.3645,-0.3638,-0.3621,-0.3603,-0.3602,-0.3591,-0.3492,-0.3343,-0.3319,-0.3235,-0.3578,-0.3578,-0.3578,-0.3416,-0.3486,-0.3495,-0.3575,-0.3606,-0.3658,-0.3663,-0.3656,-0.3648,-0.3648,-0.3615,-0.3528,-0.3377,-0.3353,-0.3275,-0.3642,-0.3642,-0.3642,-0.3642,-0.3357,-0.3336,-0.3457,-0.349,-0.3569,-0.3598,-0.3655,-0.366,-0.3597,-0.3645,-0.3546,-0.3384,-0.3325,-0.3251,-0.3643,-0.3643,-0.3642,-0.3642,-0.3642,-0.3236,-0.3228,-0.33,-0.3365,-0.3421,-0.3518,-0.3458,-0.3535,-0.3561,-0.3526,-0.3238,-0.3235,-0.3143,-0.3428,-0.3427,-0.3426,-0.3425,-0.3425,-0.3425,-0.3026,-0.3109,-0.3087,-0.3207,-0.3205,-0.3227,-0.3302,-0.3249,-0.3182,-0.3202,-0.3198,-0.3095,-0.346,-0.3437,-0.3414,-0.3416,-0.3417,-0.3418,-0.3419,-0.2727,-0.2825,-0.2766,-0.2767,-0.2793,-0.2691,-0.2844,-0.2727,-0.2709,-0.2622,-0.2687,-0.2985,-0.292,-0.2938,-0.2902,-0.274,-0.274,-0.274,-0.274,-0.2475,-0.2549,-0.2391,-0.2331,-0.2302,-0.239,-0.2133,-0.2164,-0.2239,-0.2242,-0.237,-0.2399,-0.243,-0.2342,-0.2374,-0.233,-0.2027,-0.2026,-0.2026,-0.2189,-0.222,-0.1998,-0.2067,-0.2049,-0.2005,-0.176,-0.1719,-0.1874,-0.2003,-0.2307,-0.2337,-0.2402,-0.2457,-0.2344,-0.2395,-0.2333,0,0]},{"header":{"parameterUnit":"m.s-1","parameterCategory":2,"la1":30.2992,"la2":30.254,"lo1":-89.0895,"lo2":-89.0443,"dy":0.0025,"dx":0.0025,"nx":19,"ny":19,"refTime":"2026-03-23T21:00:00:Z","depth":"0","parameterNumber":3,"parameterNumberName":"V-component_of_CURRENTS"},"data":[0,0,0,-0.0602,-0.0598,-0.0355,-0.0354,-0.0067,-0.0065,0,0,0,0,0,0,0,0,0,0,0,-0.0679,-0.0678,-0.0602,-0.0597,-0.0356,-0.0354,-0.0067,-0.0065,0,0,0,0,0,0,0,0,0,0,0,-0.0679,-0.0678,-0.0677,-0.0597,-0.0356,-0.0354,-0.0068,-0.0236,0,0,0,0,0,0,0,0,0,0,-0.0465,-0.0559,-0.0678,-0.0677,-0.0596,-0.0356,-0.0354,-0.0244,-0.0226,-0.0194,0,-0.017,0,-0.0129,-0.0049,-0.0048,0,0,0,-0.0562,-0.0574,-0.0503,-0.0677,-0.0594,-0.0357,-0.0455,-0.0233,-0.0213,-0.017,-0.0165,-0.0154,-0.0124,-0.0048,-0.0047,0.0155,0.0155,0,0,-0.0576,-0.0633,-0.0518,-0.0491,-0.0548,-0.0463,-0.0448,-0.022,-0.0212,-0.0164,-0.0147,-0.0119,-0.0046,-0.0044,0.0154,0.0155,0,0,0,-0.0638,-0.0643,-0.0576,-0.0503,-0.0467,-0.0457,-0.0439,-0.0221,-0.0197,-0.0144,-0.0116,-0.0045,-0.0042,0.0154,0.0155,0.0034,0,0,0,-0.0644,-0.0681,-0.0583,-0.0614,-0.0472,-0.0343,-0.0445,-0.0212,-0.0185,-0.0117,-0.0045,-0.004,0.0153,0.0154,0.0037,-0.0009,0,0,0,-0.0687,-0.0686,-0.0662,-0.0618,-0.0529,-0.0345,-0.0306,-0.0205,-0.017,-0.0048,-0.0039,0.0153,0.0154,0.0038,-0.0005,0.0001,0,0,0,-0.0747,-0.0715,-0.0664,-0.0618,-0.0531,-0.0394,-0.0307,-0.0184,-0.0085,-0.0044,0.0153,0.0154,0.0039,-0.0003,0.0003,-0.0014,-0.0024,0,0,-0.0739,-0.0715,-0.0686,-0.0635,-0.0549,-0.0424,-0.032,-0.0157,-0.0056,0.0082,0.0088,0.0036,-0.0005,0.0001,0.0052,0.0039,0,0,0,-0.0704,-0.0699,-0.0656,-0.06,-0.0482,-0.0389,-0.023,-0.0144,-0.0001,0.0003,0.0093,0.0073,0.0079,0.0076,0.0067,0.0334,0.016,0.016,0.0159,-0.0779,-0.072,-0.0693,-0.0612,-0.0525,-0.0351,-0.0255,-0.011,-0.0021,0.003,0.0016,-0.0004,-0.0008,-0.0015,0.0262,0.0062,0.0062,0.0061,0.0061,-0.083,-0.0826,-0.0763,-0.0723,-0.0608,-0.0515,-0.0294,-0.0207,-0.0067,-0.0005,0.0007,0.0001,-0.0032,0.0267,0.0054,0.0056,0.0056,0.0057,0.0058,-0.0917,-0.0906,-0.0894,-0.0858,-0.0784,-0.0624,-0.0527,-0.0354,-0.018,-0.0159,-0.0107,-0.0105,0.0125,-0.0149,-0.0149,-0.0149,-0.015,-0.015,-0.015,-0.1008,-0.0991,-0.1021,-0.0985,-0.0962,-0.0877,-0.0651,-0.0546,-0.0351,-0.0213,-0.0211,0.0171,-0.0066,-0.0096,-0.0153,-0.0152,-0.0152,-0.0152,-0.0151,-0.1064,-0.1085,-0.1122,-0.1131,-0.1095,-0.105,-0.0876,-0.0651,-0.0508,-0.0421,0.0088,-0.0212,-0.0163,-0.0154,-0.0183,-0.0258,-0.0258,-0.0258,-0.0258,-0.1112,-0.1126,-0.1172,-0.1196,-0.1197,-0.1108,-0.0994,-0.0727,-0.022,0.0085,0.0198,0.0268,0.0261,0.0342,0.034,0.0326,0.0381,0.0382,0.0384,-0.1132,-0.1148,-0.1175,-0.1215,-0.1225,-0.1162,-0.1039,-0.0705,0.0062,0.0442,0.0579,0.0552,0.0689,0.0655,0.0809,0.0785,0.077,0,0]}],[{"header":{"parameterUnit":"m.s-1","parameterCategory":2,"la1":30.2992,"la2":30.254,"lo1":-89.0895,"lo2":-89.0443,"dy":0.0025,"dx":0.0025,"nx":19,"ny":19,"refTime":"2026-03-23T21:00:00:Z","depth":"2","parameterNumber":2,"parameterNumberName":"U-component_of_CURRENTS"},"data":[0,0,0,-0.3216,-0.3217,-0.3357,-0.3358,-0.3395,-0.3394,0,0,0,0,0,0,0,0,0,0,0,-0.3197,-0.3198,-0.3216,-0.3217,-0.3357,-0.3358,-0.3395,-0.3394,0,0,0,0,0,0,0,0,0,0,0,-0.3197,-0.3198,-0.3198,-0.3217,-0.3356,-0.3358,-0.3395,-0.3339,0,0,0,0,0,0,0,0,0,0,-0.3228,-0.3184,-0.3198,-0.3198,-0.3218,-0.3356,-0.3358,-0.3339,-0.3343,-0.3271,0,-0.3279,0,-0.3291,-0.3387,-0.3387,0,0,0,-0.3278,-0.3181,-0.3225,-0.3198,-0.3218,-0.3356,-0.3311,-0.3343,-0.3347,-0.3275,-0.3279,-0.3281,-0.3291,-0.3387,-0.3386,-0.3337,-0.3337,0,0,-0.3271,-0.3218,-0.3223,-0.3227,-0.323,-0.3306,-0.3315,-0.3348,-0.3331,-0.3279,-0.3282,-0.3292,-0.3386,-0.3385,-0.3337,-0.3337,0,0,0,-0.3207,-0.3211,-0.326,-0.3225,-0.3236,-0.3309,-0.3319,-0.3332,-0.335,-0.3282,-0.3292,-0.3385,-0.3384,-0.3337,-0.3337,-0.3317,0,0,0,-0.3206,-0.3171,-0.3256,-0.3226,-0.3236,-0.3295,-0.3302,-0.335,-0.3353,-0.3292,-0.3385,-0.3383,-0.3336,-0.3337,-0.3317,-0.3284,0,0,0,-0.3195,-0.3168,-0.3181,-0.3222,-0.3254,-0.3296,-0.332,-0.3354,-0.3354,-0.3387,-0.3383,-0.3336,-0.3337,-0.3317,-0.3286,-0.3156,0,0,0,-0.3145,-0.3129,-0.318,-0.3172,-0.3251,-0.331,-0.3321,-0.3375,-0.3407,-0.3385,-0.3336,-0.3337,-0.3317,-0.3286,-0.3158,-0.2932,-0.2902,0,0,-0.3097,-0.3121,-0.3125,-0.3172,-0.3211,-0.3297,-0.3323,-0.3375,-0.3385,-0.3325,-0.3326,-0.3317,-0.3286,-0.3156,-0.2958,-0.2925,0,0,0,-0.3093,-0.3096,-0.3116,-0.3153,-0.3215,-0.3284,-0.3344,-0.3351,-0.3374,-0.3391,-0.3332,-0.3312,-0.323,-0.3101,-0.3077,-0.3339,-0.3339,-0.3339,-0.3339,-0.2949,-0.303,-0.3033,-0.3135,-0.3186,-0.3273,-0.3307,-0.3328,-0.3341,-0.3358,-0.3308,-0.3213,-0.308,-0.3058,-0.3334,-0.3334,-0.3334,-0.3334,-0.3334,-0.2854,-0.2832,-0.2974,-0.3007,-0.3115,-0.3157,-0.3244,-0.3281,-0.323,-0.3303,-0.3223,-0.3104,-0.3028,-0.3333,-0.3333,-0.3333,-0.3333,-0.3333,-0.3334,-0.2725,-0.2712,-0.2784,-0.2853,-0.294,-0.3072,-0.3032,-0.3125,-0.3179,-0.3144,-0.2926,-0.2924,-0.3135,-0.3079,-0.3079,-0.3078,-0.3077,-0.3077,-0.3076,-0.2499,-0.2575,-0.256,-0.2688,-0.2714,-0.2779,-0.2894,-0.2858,-0.2827,-0.2857,-0.2854,-0.3124,-0.3133,-0.3119,-0.3066,-0.3068,-0.3069,-0.307,-0.3071,-0.2237,-0.2309,-0.2262,-0.228,-0.2347,-0.2296,-0.2466,-0.2401,-0.24,-0.2334,-0.2659,-0.2672,-0.2628,-0.2647,-0.2621,-0.2442,-0.2442,-0.2442,-0.2442,-0.2016,-0.2071,-0.195,-0.1921,-0.1913,-0.2036,-0.1832,-0.1874,-0.2037,-0.2101,-0.2116,-0.2157,-0.2189,-0.2125,-0.2157,-0.2123,-0.1814,-0.1813,-0.1813,-0.1792,-0.1809,-0.1657,-0.1712,-0.1713,-0.1696,-0.151,-0.1448,-0.1593,-0.1796,-0.209,-0.2383,-0.249,-0.2522,-0.2467,-0.2501,-0.2464,0,0]},{"header":{"parameterUnit":"m.s-1","parameterCategory":2,"la1":30.2992,"la2":30.254,"lo1":-89.0895,"lo2":-89.0443,"dy":0.0025,"dx":0.0025,"nx":19,"ny":19,"refTime":"2026-03-23T21:00:00:Z","depth":"2","parameterNumber":3,"parameterNumberName":"V-component_of_CURRENTS"},"data":[0,0,0,-0.034,-0.0337,-0.0165,-0.0164,0.0053,0.0055,0,0,0,0,0,0,0,0,0,0,0,-0.0396,-0.0395,-0.034,-0.0337,-0.0165,-0.0164,0.0053,0.0055,0,0,0,0,0,0,0,0,0,0,0,-0.0396,-0.0395,-0.0394,-0.0336,-0.0166,-0.0164,0.0053,-0.0068,0,0,0,0,0,0,0,0,0,0,-0.0232,-0.0301,-0.0395,-0.0394,-0.0336,-0.0166,-0.0164,-0.0074,-0.0061,-0.0035,0,-0.0025,0,0.0004,0.0066,0.0067,0,0,0,-0.0304,-0.0312,-0.0266,-0.0394,-0.0334,-0.0166,-0.0233,-0.0066,-0.0052,-0.0018,-0.0022,-0.0014,0.0008,0.0068,0.0068,0.0197,0.0197,0,0,-0.0314,-0.0356,-0.0277,-0.0258,-0.0312,-0.0239,-0.0229,-0.0057,-0.0051,-0.0021,-0.0009,0.0011,0.0069,0.007,0.0197,0.0197,0,0,0,-0.0363,-0.0363,-0.032,-0.0267,-0.0244,-0.0235,-0.0223,-0.0058,-0.0045,-0.0006,0.0014,0.007,0.0072,0.0197,0.0197,0.0079,0,0,0,-0.0367,-0.0394,-0.0325,-0.0347,-0.0248,-0.0151,-0.0228,-0.0056,-0.0036,0.0013,0.007,0.0073,0.0197,0.0197,0.0082,0.0038,0,0,0,-0.04,-0.0397,-0.0384,-0.0351,-0.0291,-0.0154,-0.0128,-0.005,-0.0026,0.0067,0.0074,0.0197,0.0197,0.0085,0.0043,0.006,0,0,0,-0.0437,-0.0444,-0.0386,-0.0387,-0.0293,-0.022,-0.0129,-0.0045,0.0028,0.0071,0.0197,0.0197,0.0085,0.0046,0.0062,0.0085,0.0077,0,0,-0.0472,-0.045,-0.0451,-0.0395,-0.0364,-0.024,-0.019,-0.005,0.0043,0.0146,0.015,0.0081,0.0043,0.006,0.0101,0.0092,0,0,0,-0.0479,-0.0486,-0.0463,-0.0432,-0.0352,-0.0278,-0.0141,-0.0064,0.0053,0.0082,0.012,0.0101,0.0115,0.0135,0.0128,0.0198,0.0198,0.0198,0.0198,-0.0575,-0.0536,-0.0545,-0.0489,-0.0436,-0.029,-0.0212,-0.0081,0.0004,0.0045,0.0033,0.0005,0.0024,0.0019,0.0064,0.0064,0.0063,0.0063,0.0063,-0.066,-0.0668,-0.0623,-0.0621,-0.0528,-0.047,-0.0287,-0.0199,-0.0072,-0.0013,0.0006,0.0044,0.0005,0.0054,0.0056,0.0057,0.0058,0.0059,0.0059,-0.0735,-0.0732,-0.0738,-0.0735,-0.0695,-0.0574,-0.0492,-0.0341,-0.018,-0.0157,-0.0067,-0.0064,-0.0062,-0.0136,-0.0136,-0.0136,-0.0136,-0.0136,-0.0136,-0.0798,-0.0801,-0.0842,-0.0841,-0.0836,-0.078,-0.0597,-0.0495,-0.0302,-0.017,-0.0169,-0.006,-0.0054,-0.0069,-0.0138,-0.0138,-0.0138,-0.0138,-0.0137,-0.0856,-0.0867,-0.0921,-0.0944,-0.0943,-0.091,-0.0766,-0.0538,-0.0403,-0.0304,-0.0147,-0.0146,-0.009,-0.0082,-0.0095,-0.0167,-0.0167,-0.0167,-0.0167,-0.0892,-0.0906,-0.0966,-0.1006,-0.1021,-0.0956,-0.0819,-0.0561,-0.0297,-0.0141,-0.0142,-0.0115,-0.0114,-0.0056,-0.0049,-0.006,-0.0123,-0.0123,-0.0123,-0.0922,-0.0933,-0.0979,-0.1024,-0.1048,-0.0987,-0.0841,-0.0521,-0.016,-0.0121,-0.0133,-0.0165,-0.0127,-0.0125,-0.0033,-0.0024,-0.0038,0,0]}],[{"header":{"parameterUnit":"m.s-1","parameterCategory":2,"la1":30.2992,"la2":30.254,"lo1":-89.0895,"lo2":-89.0443,"dy":0.0025,"dx":0.0025,"nx":19,"ny":19,"refTime":"2026-03-23T21:00:00:Z","depth":"4","parameterNumber":2,"parameterNumberName":"U-component_of_CURRENTS"},"data":[0,0,0,-0.1566,-0.1572,-0.1542,-0.1539,-0.1769,-0.1774,0,0,0,0,0,0,0,0,0,0,0,-0.1467,-0.1469,-0.1566,-0.1573,-0.1542,-0.1539,-0.1768,-0.1774,0,0,0,0,0,0,0,0,0,0,0,-0.1466,-0.1468,-0.1471,-0.1574,-0.1543,-0.1539,-0.1767,-0.1674,0,0,0,0,0,0,0,0,0,0,-0.1649,-0.1629,-0.1468,-0.1471,-0.1576,-0.1544,-0.1539,-0.1664,-0.168,-0.1925,0,-0.198,0,-0.2041,-0.1815,-0.1817,0,0,0,-0.1366,-0.1614,-0.1638,-0.1471,-0.1578,-0.1544,-0.1497,-0.1669,-0.1688,-0.1949,-0.1984,-0.1994,-0.2045,-0.1819,-0.1822,-0.2261,-0.2261,0,0,-0.1369,-0.1427,-0.1624,-0.1651,-0.1665,-0.15,-0.15,-0.1675,-0.173,-0.1985,-0.2,-0.2048,-0.1823,-0.1827,-0.226,-0.2261,0,0,0,-0.1512,-0.1429,-0.1432,-0.164,-0.1703,-0.1505,-0.1503,-0.1713,-0.1727,-0.2003,-0.2051,-0.1826,-0.1834,-0.226,-0.2261,-0.2282,0,0,0,-0.1503,-0.1529,-0.1435,-0.1463,-0.17,-0.1696,-0.154,-0.1705,-0.1733,-0.205,-0.1826,-0.184,-0.226,-0.226,-0.2281,-0.2218,0,0,0,-0.1451,-0.1526,-0.1549,-0.1468,-0.1563,-0.1692,-0.1698,-0.1705,-0.1779,-0.1817,-0.1841,-0.226,-0.226,-0.228,-0.2218,-0.22,0,0,0,-0.146,-0.1504,-0.1551,-0.1642,-0.1566,-0.1662,-0.1695,-0.184,-0.1892,-0.1829,-0.226,-0.226,-0.2279,-0.2219,-0.2201,-0.1982,0,0,0,-0.1493,-0.1511,-0.1555,-0.1602,-0.1652,-0.1645,-0.1733,-0.1875,-0.1963,-0.2188,-0.2193,-0.2281,-0.2218,-0.22,-0.2023,0,0,0,0,-0.155,-0.156,-0.1601,-0.1657,-0.175,-0.1758,-0.1894,-0.1962,-0.2089,-0.2042,-0.2289,-0.2246,-0.2235,-0.2111,-0.2264,-0.2264,-0.2263,-0.2263,-0.2263,-0.151,-0.1542,-0.1594,-0.1636,-0.174,-0.1895,-0.1918,-0.2029,-0.2189,-0.2246,-0.2273,-0.2275,-0.2149,-0.2321,-0.2321,-0.2322,-0.2322,-0.2322,-0.2322,-0.1466,-0.149,-0.1564,-0.1629,-0.1719,-0.1849,-0.2005,-0.2089,-0.2185,-0.2256,-0.2248,-0.2153,-0.2324,-0.2324,-0.2323,-0.2323,-0.2323,-0.2323,-0.2323,-0.1395,-0.1417,-0.1473,-0.1551,-0.1669,-0.184,-0.1936,-0.2056,-0.2172,-0.2192,-0.2092,-0.2258,-0.2244,-0.2246,-0.2245,-0.2245,-0.2245,-0.2245,-0.2244,-0.131,-0.1358,-0.1384,-0.1476,-0.1553,-0.1681,-0.1873,-0.1935,-0.2085,-0.2028,-0.2216,-0.2247,-0.225,-0.2238,-0.2239,-0.224,-0.2241,-0.2241,-0.2242,-0.1249,-0.1271,-0.1283,-0.1323,-0.143,-0.1474,-0.1666,-0.1769,-0.1796,-0.1789,-0.193,-0.1947,-0.1897,-0.1907,-0.1881,-0.1777,-0.1774,-0.1771,0,-0.1195,-0.1206,-0.1203,-0.1211,-0.1242,-0.1348,-0.1387,-0.1503,-0.1622,-0.1569,-0.1806,-0.1962,-0.1974,-0.1919,-0.1923,-0.1891,0,0,0,-0.115,-0.1152,-0.1117,-0.113,-0.1149,-0.1239,-0.139,-0.1386,-0.1592,-0.1582,-0.1699,-0.1718,-0.2057,-0.2225,-0.2187,-0.219,-0.2167,0,0]},{"header":{"parameterUnit":"m.s-1","parameterCategory":2,"la1":30.2992,"la2":30.254,"lo1":-89.0895,"lo2":-89.0443,"dy":0.0025,"dx":0.0025,"nx":19,"ny":19,"refTime":"2026-03-23T21:00:00:Z","depth":"4","parameterNumber":3,"parameterNumberName":"V-component_of_CURRENTS"},"data":[0,0,0,-0.0237,-0.0237,-0.028,-0.028,-0.023,-0.0229,0,0,0,0,0,0,0,0,0,0,0,-0.0233,-0.0232,-0.0237,-0.0237,-0.028,-0.028,-0.023,-0.0229,0,0,0,0,0,0,0,0,0,0,0,-0.0233,-0.0232,-0.0232,-0.0237,-0.028,-0.028,-0.0231,-0.0232,0,0,0,0,0,0,0,0,0,0,-0.0207,-0.0223,-0.0232,-0.0232,-0.0237,-0.0279,-0.028,-0.0233,-0.0232,-0.0171,0,-0.0166,0,-0.0174,-0.0221,-0.022,0,0,0,-0.0268,-0.0225,-0.021,-0.0232,-0.0237,-0.0279,-0.0269,-0.0234,-0.0231,-0.0168,-0.0166,-0.0165,-0.0173,-0.022,-0.0219,-0.0176,-0.0176,0,0,-0.0265,-0.0266,-0.0212,-0.0208,-0.0229,-0.0268,-0.027,-0.0234,-0.0235,-0.0166,-0.0164,-0.0172,-0.0219,-0.0218,-0.0175,-0.0176,0,0,0,-0.0238,-0.0264,-0.0254,-0.021,-0.0213,-0.0268,-0.0271,-0.0239,-0.0227,-0.0163,-0.0172,-0.0218,-0.0217,-0.0175,-0.0175,-0.024,0,0,0,-0.0238,-0.0245,-0.0253,-0.0257,-0.0214,-0.0244,-0.0277,-0.0231,-0.0227,-0.0172,-0.0218,-0.0215,-0.0174,-0.0175,-0.0238,-0.0265,0,0,0,-0.0234,-0.0246,-0.024,-0.0257,-0.0257,-0.0245,-0.0236,-0.0232,-0.0229,-0.022,-0.0215,-0.0174,-0.0175,-0.0235,-0.0261,-0.0192,0,0,0,-0.0249,-0.0275,-0.024,-0.0283,-0.0256,-0.0298,-0.0237,-0.0261,-0.0262,-0.0217,-0.0174,-0.0175,-0.0234,-0.0258,-0.0191,-0.0181,0,0,0,-0.0297,-0.0281,-0.0311,-0.028,-0.0326,-0.0295,-0.0349,-0.0309,-0.0255,-0.0182,-0.0182,-0.0239,-0.026,-0.0192,-0.025,0,0,0,0,-0.0339,-0.0351,-0.0363,-0.0378,-0.0383,-0.0398,-0.0365,-0.0336,-0.0296,-0.0252,-0.0244,-0.0256,-0.0209,-0.0202,-0.0181,-0.0181,-0.0181,-0.0181,-0.0181,-0.0398,-0.0407,-0.0456,-0.0462,-0.048,-0.0462,-0.046,-0.0407,-0.0344,-0.0336,-0.0313,-0.0315,-0.0315,-0.0317,-0.0317,-0.0317,-0.0318,-0.0318,-0.0318,-0.047,-0.0501,-0.0511,-0.0562,-0.0556,-0.0583,-0.0533,-0.0489,-0.04,-0.0384,-0.0334,-0.0281,-0.0325,-0.0323,-0.0322,-0.0322,-0.0321,-0.0321,-0.032,-0.0502,-0.052,-0.0551,-0.0613,-0.0648,-0.0645,-0.0622,-0.056,-0.0457,-0.0423,-0.0324,-0.0326,-0.0309,-0.0362,-0.0362,-0.0362,-0.0362,-0.0362,-0.0361,-0.0519,-0.055,-0.0604,-0.0661,-0.0699,-0.0717,-0.0656,-0.0582,-0.0474,-0.0389,-0.0409,-0.0327,-0.0326,-0.031,-0.0359,-0.036,-0.036,-0.036,-0.036,-0.0568,-0.0577,-0.0648,-0.0694,-0.076,-0.0756,-0.0708,-0.0543,-0.0431,-0.0328,-0.0337,-0.0339,-0.0291,-0.029,-0.027,-0.031,-0.031,-0.031,0,-0.0596,-0.0606,-0.0692,-0.0752,-0.0786,-0.0777,-0.065,-0.0548,-0.0406,-0.0408,-0.0421,-0.0441,-0.0439,-0.0395,-0.0393,-0.0377,0,0,0,-0.0637,-0.0648,-0.0713,-0.0764,-0.0801,-0.0685,-0.0614,-0.0545,-0.0448,-0.0334,-0.0309,-0.031,-0.0381,-0.0353,-0.0281,-0.028,-0.0248,0,0]}]]